SB KEPS @ AMSAT $ORB11133.N 2Line Orbital Elements 11133.AMSAT
HR AMSAT ORBITAL ELEMENTS FOR AMATEUR SATELLITES IN NASA FORMAT FROM WA5QGD FORT WORTH,TX May 13, 2011 Send Subscribe/unsubscribe to KEPS at http://www.amsat.org/mailman/listinfo/keps BID: ORB11133.N
DECODE 2-LINE ELSETS WITH THE FOLLOWING KEY: 1 AAAAAU 00 0 0 BBBBB.BBBBBBBB .CCCCCCCC 00000-0 00000-0 0 DDDZ 2 AAAAA EEE.EEEE FFF.FFFF GGGGGGG HHH.HHHH III.IIII JJ.JJJJJJJJKKKKKZ KEY: A-CATALOGNUM B-EPOCHTIME C-DECAY D-ELSETNUM E-INCLINATION F-RAAN G-ECCENTRICITY H-ARGPERIGEE I-MNANOM J-MNMOTION K-ORBITNUM Z-CHECKSUM
TO ALL RADIO AMATEURS BT
AO-07 1 07530U 74089B 11131.60494609 -.00000027 00000-0 10000-3 0 00768 2 07530 101.3927 139.5898 0011947 352.4762 007.6120 12.53582305669601 FO-29 1 24278U 96046B 11131.96727271 -.00000038 00000-0 -17439-5 0 05815 2 24278 098.5414 280.9816 0350568 351.2524 008.2607 13.52960168727560 SO-33 1 25509U 98061B 11131.26221889 .00000421 00000-0 69853-4 0 09655 2 25509 031.4343 093.1521 0354334 278.6682 077.3961 14.28396261654991 RS-22 1 27939U 03042A 11132.80921478 .00000355 00000-0 76856-4 0 2505 2 27939 097.8508 348.4916 0014667 095.8825 264.4056 14.63577269407160 VO-52 1 28650U 05017B 11131.63690820 .00000916 00000-0 12107-3 0 07926 2 28650 097.6442 176.3977 0025732 282.4674 077.3657 14.82046018325332 SO-67 1 35870U 09049F 11132.82225693 .00002027 00000-0 95296-4 0 8300 2 35870 097.2836 177.3559 0003405 125.0788 353.4457 15.20677605 91561 HO-68 1 36122U 09072B 11132.74298612 -.00000045 00000-0 00000 0 0 3655 2 36122 100.4169 194.0851 0007149 306.8565 053.1899 13.16286034 67573 UO-11 1 14781U 84021B 11132.71141300 .00000224 00000-0 36669-4 0 5461 2 14781 098.0060 189.5271 0007986 252.5378 107.4958 14.79962320460547 AO-16 1 20439U 90005D 11132.45490121 .00000120 00000-0 60707-4 0 1850 2 20439 098.3814 083.2726 0010023 271.6670 088.3365 14.31918157112508 LO-19 1 20442U 90005G 11132.88932055 .00000123 00000-0 61426-4 0 983 2 20442 098.3437 088.1804 0010892 262.2555 097.7387 14.32144362112740 AO-27 1 22825U 93061C 11132.86937185 .00000116 00000-0 62505-4 0 8150 2 22825 098.5292 078.0553 0009046 024.5592 335.6010 14.29345719919147 IO-26 1 22826U 93061D 11132.87528532 .00000106 00000-0 58316-4 0 5582 2 22826 098.5236 078.5473 0009573 018.5505 341.6021 14.29607403919267 GO-32 1 25397U 98043D 11132.40865206 -.00000113 00000-0 -31877-4 0 4777 2 25397 098.3246 126.8875 0001972 049.1244 311.0112 14.23206669666871 NO-44 1 26931U 01043C 11132.22286133 .00000041 00000-0 48140-4 0 7493 2 26931 067.0521 076.1957 0007145 263.3725 096.6584 14.29656203501781 SO-50 1 27607U 02058C 11132.32371735 .00000564 00000-0 10873-3 0 4639 2 27607 064.5579 076.6520 0068953 329.1930 030.5135 14.71734181450816 CO-55 1 27844U 03031E 11132.05035857 .00000173 00000-0 10054-3 0 1078 2 27844 098.7059 141.2766 0009247 307.4425 052.5909 14.20805107407783 CO-57 1 27848U 03031J 11131.98816547 .00000159 00000-0 94064-4 0 567 2 27848 098.7126 140.3927 0009134 312.2325 047.8082 14.20585479407729 AO-51 1 28375U 04025K 11131.44204252 .00000111 00000-0 45995-4 0 09670 2 28375 098.0955 111.8265 0083143 181.0017 179.1020 14.40753575360778 CP3 1 31129U 07012N 11131.63820934 .00000089 00000-0 31296-4 0 8652 2 31129 097.8999 157.9596 0101213 294.9288 064.1411 14.52468230215539 CO-65 1 32785U 08021C 11132.29380413 .00001036 00000-0 13709-3 0 9874 2 32785 097.8511 196.8694 0013633 294.7176 065.2575 14.81977771164220 KKS-1 1 33493U 09002B 11132.70616376 .00001854 00000-0 24195-3 0 5715 2 33493 098.1201 260.8115 0020445 152.9683 207.2604 14.81647589124266 SOHLA-1 1 33496U 09002E 11131.89660603 .00000217 00000-0 44755-4 0 04108 2 33496 098.0770 242.1018 0005727 234.4328 125.6339 14.69609502123156 TISAT-1 1 36799U 10035E 11132.72313251 .00001108 00000-0 15152-3 0 8463 2 36799 098.1031 200.6169 0016060 036.4025 323.8258 14.80522782 45060 STUDSAT 1 36801U 10035G 11132.80008139 .00003092 00000-0 41003-3 0 1823 2 36801 098.1091 200.5502 0014273 024.4893 335.6991 14.80534621 45064 RAX 1 37223U 0 11089.46431449 .00000660 00000-0 10054-3 0 01224 2 37223 071.9716 212.4675 0019443 068.5267 291.7923 14.77296529019265 OOREOS 1 37224U 10062C 11076.42207246 .00000868 00000-0 13086-3 0 01095 2 37224 071.9712 241.3960 0017800 096.5373 263.7815 14.76929834017329 FO-69 1 37227U 0 11132.42264097 .00000378 00000-0 61952-4 0 00270 2 37227 071.9691 118.1246 0017350 342.4039 017.6539 14.76576752004049 NANOSALD 1 37361U 0 11129.34459384 .00046521 00000-0 44283-2 0 01818 2 37361 071.9716 122.3227 0038272 269.3119 090.3892 14.92615404016313 FO-70 1 37380U 0 11132.43064796 .00000381 00000-0 62722-4 0 01636 2 37380 071.9718 118.1706 0017926 339.7206 020.3258 14.76343922025586 NOAA-10 1 16969U 86073A 11131.97110293 .00000004 00000-0 19656-4 0 04983 2 16969 098.6206 162.2458 0012020 335.6884 024.3730 14.27459301282483 NOAA-11 1 19531U 88089A 11131.85286961 .00000224 00000-0 13821-3 0 05008 2 19531 098.7509 220.0023 0010479 294.2902 065.7169 14.14915912167619 NOAA-12 1 21263U 91032A 11131.94388785 .00000104 00000-0 62698-4 0 09987 2 21263 098.7506 149.8507 0011586 295.3075 064.6904 14.25709572039246 MET-3/5 1 21655U 91056A 11132.80850528 .00000051 00000-0 10000-3 0 1086 2 21655 082.5560 075.7685 0012176 244.1155 115.8752 13.17028757949062 MET-2/21 1 22782U 93055A 11131.73839177 -.00000061 00000-0 -68779-4 0 929 2 22782 082.5492 351.8005 0021761 197.7995 162.2384 13.83657389893514 OKEAN-4 1 23317U 94066A 11132.87790592 .00000644 00000-0 76007-4 0 5529 2 23317 082.5409 046.1077 0020328 233.2609 126.6738 14.83058120895312 NOAA-14 1 23455U 94089A 11131.94307686 .00000010 00000-0 28440-4 0 04885 2 23455 098.8529 214.9376 0010004 027.1883 332.9806 14.13817793843952 NOAA-15 1 25338U 98030A 11131.79150608 .00000129 00000-0 73774-4 0 08111 2 25338 098.6518 118.4370 0010275 193.5564 166.5350 14.24911099675545 RESURS 1 25394U 98043A 11132.55917945 .00000003 00000-0 19109-4 0 7939 2 25394 098.2998 137.5452 0001773 016.8759 343.2477 14.24232584667230 FENGYUN1 1 25730U 99025A 11131.94551681 .00000349 00000-0 22720-3 0 03365 2 25730 098.8179 093.9418 0025794 052.2907 308.0591 14.08608974617969 OKEAN-0 1 25860U 99039A 11131.97446036 .00000349 00000-0 60808-4 0 03083 2 25860 097.8810 099.4239 0001875 084.3905 275.7516 14.73776639635327 NOAA-16 1 26536U 00055A 11131.74140384 -.00000174 00000-0 -69045-4 0 02939 2 26536 099.1418 161.5392 0011262 132.1670 228.0457 14.12614944548219 NOAA-17 1 27453U 02032A 11131.71583535 .00000215 00000-0 11118-3 0 02875 2 27453 098.3812 173.0942 0010719 254.9576 105.0416 14.24269938461462 NOAA-18 1 28654U 05018A 11131.80585174 -.00000047 00000-0 -12949-5 0 07670 2 28654 098.9930 082.8695 0013729 204.5222 155.5305 14.11470328307793 NOAA-19 1 33591U 09005A 11131.79507329 .00000106 00000-0 82787-4 0 09582 2 33591 098.8246 072.5647 0015143 079.3953 280.8913 14.11163841116257 HUBBLE 1 20580U 90037B 11131.68985533 .00001322 00000-0 87520-4 0 7631 2 20580 028.4700 254.8583 0003590 090.6325 269.4677 15.01347649954161 ISS 1 25544U 98067A 11133.06519513 .00025120 00000-0 16978-3 0 3458 2 25544 051.6483 341.0789 0002453 268.0420 239.1666 15.74895012715375 CO-58 1 28895U 05043F 11132.43011153 .00000405 00000-0 93370-4 0 8714 2 28895 097.9711 010.1906 0017206 336.7598 023.2794 14.60091459295026 FALCON 1 30776U 07006E 11132.54287979 .00002180 00000-0 15524-3 0 830 2 30776 035.4346 203.7037 0000456 222.8017 137.2665 15.04564829229679 MAST 1 31126U 07012K 11132.86404719 .00000159 00000-0 46449-4 0 1561 2 31126 097.8974 162.0806 0092844 280.7530 078.3224 14.53738662215957 CAPE1 1 31130U 07012P 11132.54174588 .00000483 00000-0 12165-3 0 1735 2 31130 097.8994 158.5962 0101345 292.3914 066.6527 14.52379776215467 COMPASS 1 32787U 08021E 11132.63885900 .00001195 00000-0 15568-3 0 9832 2 32787 097.8490 197.1127 0014590 294.2794 065.6865 14.82379181164292 AAUSAT2 1 32788U 08021F 11132.67448388 .00001356 00000-0 17499-3 0 9746 2 32788 097.8480 197.3593 0014122 294.5475 065.4290 14.82561305164315 DO-64 1 32789U 08021G 11131.68289716 .00002232 00000-0 28074-3 0 9908 2 32789 097.8583 197.3222 0014244 295.4699 064.5054 14.82992096164179 CO-66 1 32791U 08021J 11132.17559316 .00000726 00000-0 97863-4 0 9765 2 32791 097.8500 196.6102 0014904 294.6905 065.2730 14.82077176164176 RS-30 1 32953U 08025A 11132.65193909 .00000010 00000-0 00000 0 0 7209 2 32953 082.5031 184.8131 0020486 104.0224 256.3136 12.43012564134677 TACSAT-3 1 35001U 09028A 11131.94392030 .00018759 00000-0 34922-3 0 06085 2 35001 040.4544 032.7083 0024704 298.5263 061.3069 15.48018459111460 PHARMSAT 1 35002U 09028B 11132.87095255 .00015373 00000-0 28894-3 0 5470 2 35002 040.4719 024.6773 0026205 310.7303 049.1248 15.47806423111638 HAWKSAT1 1 35003U 09028C 11132.77534478 .00066688 00000-0 73824-3 0 6159 2 35003 040.4561 001.4338 0023797 330.5111 029.4362 15.61665837111887 CP6 1 35004U 09028D 11131.84839786 .00091712 00000-0 83663-3 0 06188 2 35004 040.4556 000.3567 0022219 326.6734 033.2321 15.66467345111808 METEOR-M 1 35865U 09049A 11132.75457713 .00000176 00000-0 10000-3 0 3572 2 35865 098.7088 188.3370 0002955 116.9043 243.2390 14.21838210 85550 RS-38 1 35869U 09049E 11132.75897656 .00000177 00000-0 10000-3 0 3559 2 35869 098.7056 188.3784 0004877 123.7116 236.4507 14.22010297 85563 /EX